Wind_Speed
20 20 20 20 19 19 19 19 18 18 17 17 17 18 18 18 18 18 18 17 17 16 16 16 16 16 17 17 18 18 18 17 16 16 16 16 17 17 17 18 20 24 26 23 21 20 19 18 18 20 20 20 19 18 17 15 14 15 16 17 18 20 22
19 19 18 18 18 18 17 17 17 16 16 16 16 16 17 17 17 18 19 18 18 18 18 18 18 18 18 18 19 19 18 17 16 15 15 16 17 18 19 20 21 23 25 25 23 22 20 19 18 19 19 19 18 17 16 16 14 15 17 18 17 19 21
19 19 19 19 19 18 18 17 17 17 17 16 16 16 16 16 16 16 17 17 18 18 18 19 20 21 20 20 20 21 20 19 19 18 17 17 17 18 19 20 21 22 23 24 24 22 21 20 18 18 17 17 18 18 18 18 16 15 16 17 16 15 17
19 19 19 19 19 19 19 19 18 18 18 18 18 18 17 17 17 17 17 17 17 17 17 18 19 20 20 20 21 22 21 21 21 21 21 21 20 20 20 20 20 22 22 23 23 23 22 21 19 18 16 16 17 18 18 18 17 16 17 19 18 18 19
19 18 18 18 18 18 18 19 18 18 18 18 18 18 18 18 18 18 18 18 18 18 18 18 19 19 19 20 21 21 22 22 22 23 23 24 24 23 23 23 23 23 24 24 25 24 24 23 22 20 19 18 19 20 20 19 18 17 18 20 22 25 27
18 18 18 17 17 17 17 17 17 17 17 17 17 17 17 17 17 18 18 18 18 19 19 19 19 19 20 21 21 22 22 22 23 24 24 24 24 25 25 26 26 26 26 26 26 26 25 25 24 24 24 22 22 23 24 24 24 23 24 25 27 29 30
18 18 18 18 17 17 17 17 17 17 17 17 18 18 18 17 17 17 18 18 18 18 19 19 19 20 20 21 21 22 22 23 24 24 24 25 25 25 26 27 28 28 28 28 29 29 28 28 27 27 28 26 24 25 26 26 26 27 26 27 28 28 26
19 18 18 18 18 17 17 17 17 17 17 18 18 19 19 18 18 18 18 18 18 19 19 19 19 19 20 20 21 22 22 22 23 24 24 24 24 25 25 26 27 27 28 28 29 29 28 27 26 24 23 20 18 19 20 19 20 21 20 19 20 21 21
20 20 19 18 18 18 18 18 17 17 18 19 19 20 20 19 20 20 19 19 19 19 19 19 19 20 20 20 21 21 21 21 22 23 24 23 23 24 25 25 25 25 26 25 25 25 23 21 20 18 16 15 13 15 16 15 16 17 16 16 17 17 18
22 22 21 20 19 19 19 19 18 18 18 19 19 20 21 21 21 21 21 21 20 20 20 20 20 20 20 20 21 21 21 22 22 22 23 23 23 23 24 24 24 24 23 22 22 21 20 19 18 17 15 15 16 17 19 19 19 20 20 20 21 21 21
23 23 23 22 21 20 20 20 19 19 19 19 20 21 22 22 22 22 22 22 22 22 21 20 20 20 20 21 21 22 22 23 23 23 23 23 23 23 23 23 23 23 21 20 20 20 19 19 20 19 18 19 20 22 23 23 23 24 24 24 26 26 25
24 24 24 23 22 21 21 20 20 20 20 20 20 21 22 23 24 23 23 23 23 23 22 22 21 21 22 22 22 22 23 23 23 24 24 25 25 25 24 24 24 23 22 22 22 22 21 20 20 20 20 20 21 22 24 25 25 26 26 26 27 27 26
25 25 24 24 23 22 22 21 20 20 20 20 20 21 22 24 25 24 23 23 23 23 22 22 22 22 23 23 23 24 24 24 24 24 24 25 25 26 26 25 25 24 24 24 24 24 23 22 21 21 21 20 20 22 22 23 24 24 25 26 26 26 25
26 26 25 25 25 24 23 21 21 20 20 21 21 21 22 24 25 25 24 23 23 23 22 22 23 23 22 22 22 23 23 24 25 25 25 25 26 26 26 25 25 25 25 25 26 26 26 24 23 23 23 22 22 22 23 23 24 24 25 27 27 27 27
28 28 27 26 26 26 24 22 21 22 21 22 22 23 24 25 25 25 25 25 24 24 23 22 22 22 22 21 21 21 21 23 24 24 25 26 26 26 26 25 25 24 25 25 26 28 28 28 28 27 27 26 24 25 25 26 27 28 27 28 28 28 28
30 30 30 29 28 28 26 24 22 23 23 22 23 24 25 26 26 25 26 26 26 25 24 23 22 22 22 21 20 19 20 21 23 24 25 25 25 25 25 26 25 24 25 26 27 28 29 30 30 29 30 29 27 27 27 27 28 27 25 25 26 26 25
32 32 32 31 30 29 28 26 24 24 25 24 23 25 26 27 26 26 26 26 26 25 24 23 22 23 23 22 21 20 20 21 22 24 25 25 25 25 25 25 23 23 25 26 27 28 28 29 29 29 29 29 28 28 27 26 27 26 24 25 27 27 26
34 33 33 33 32 31 30 28 26 25 26 26 25 26 27 28 28 27 27 26 26 25 24 23 22 22 22 23 22 21 20 21 22 24 25 26 25 26 26 24 21 22 24 25 26 28 28 29 29 29 30 29 29 29 28 29 31 30 28 30 31 31 30
35 35 34 34 34 32 31 30 28 26 25 26 26 27 28 29 29 29 28 27 26 25 24 24 23 22 22 23 23 22 21 21 22 23 25 25 25 27 27 24 22 23 24 24 25 26 27 28 28 28 29 29 29 29 29 30 32 31 31 33 34 33 32
35 36 35 35 35 34 33 32 31 28 26 26 27 27 28 29 30 29 28 27 26 26 25 24 23 23 22 23 23 23 23 22 21 22 23 23 25 26 26 24 23 24 24 24 25 25 25 26 26 26 26 26 27 28 28 29 30 30 30 31 32 31 31
34 35 35 35 35 35 34 32 31 29 27 26 26 26 28 29 30 29 28 27 27 26 25 24 23 22 22 22 22 23 24 24 22 22 23 24 25 25 25 24 24 25 25 25 26 25 25 25 25 24 24 24 24 25 25 26 26 27 27 28 29 29 30
34 35 35 35 35 34 33 32 30 29 27 25 25 25 26 28 29 28 27 27 27 26 26 24 23 22 22 22 21 22 24 25 25 24 25 25 25 24 24 24 24 25 25 26 26 26 26 26 24 24 23 22 22 21 20 21 21 21 22 24 25 26 26
34 34 35 35 34 33 32 30 28 27 25 24 23 23 23 25 25 25 26 27 27 26 25 24 23 23 22 22 22 23 24 25 25 26 26 26 25 24 23 24 25 26 26 27 26 26 27 26 24 24 23 21 20 18 16 15 16 17 18 20 21 23 24
32 32 32 33 32 31 30 28 27 26 25 24 24 23 22 22 22 23 24 26 26 26 25 24 23 23 23 23 23 24 25 25 26 26 26 26 26 25 24 25 26 27 27 27 27 27 27 26 25 24 22 20 17 15 14 15 16 18 19 20 22 22 23
28 28 29 30 30 29 27 26 25 25 24 24 24 24 23 22 21 21 22 24 25 25 25 24 23 23 23 24 24 25 26 27 27 27 27 27 26 26 26 26 26 26 26 27 28 27 27 26 24 22 21 18 16 16 16 17 19 20 21 22 23 24 25
26 26 27 28 28 28 26 25 24 23 22 23 24 24 23 22 20 19 20 22 23 24 23 23 23 23 24 25 25 26 26 27 27 27 27 27 26 26 26 25 25 25 26 26 26 26 26 25 23 21 20 18 18 18 19 19 20 20 21 21 22 23 23
26 25 25 26 26 26 25 24 22 21 20 21 23 23 22 21 19 17 17 19 21 22 22 23 23 24 24 25 26 26 26 26 26 26 27 26 25 25 25 25 24 24 24 25 25 25 24 23 21 20 20 19 19 19 19 19 20 20 20 18 18 19 21
27 27 26 25 25 25 24 24 22 20 19 20 21 22 23 22 21 19 20 21 22 23 23 23 24 25 25 26 26 26 26 26 25 25 24 24 23 22 22 22 23 23 23 23 23 23 22 21 21 21 20 20 21 21 20 19 19 19 19 17 17 19 21
28 28 28 27 27 26 27 27 25 23 22 22 22 23 24 24 24 24 24 25 24 24 24 25 26 27 27 28 28 28 27 26 25 24 23 21 20 20 19 19 20 21 22 22 21 21 22 22 22 22 22 22 22 21 19 18 18 18 18 17 18 20 21
25 25 26 27 28 27 27 28 28 26 25 26 26 26 26 26 27 27 27 26 25 26 27 28 28 29 29 29 29 29 28 26 24 23 22 21 19 19 19 19 19 19 20 20 21 22 22 21 21 21 20 20 20 19 18 17 18 18 18 18 19 20 21
22 22 22 24 26 25 24 25 25 25 25 25 26 27 27 27 27 26 26 26 26 27 29 29 30 31 30 30 30 29 28 26 24 23 22 21 20 20 20 20 20 20 19 19 20 21 21 20 20 20 19 19 20 20 20 20 19 19 19 19 19 20 21
23 22 21 21 22 23 23 23 22 22 22 22 23 24 24 25 25 25 26 26 27 29 31 31 31 32 32 31 30 30 28 26 25 24 23 23 22 22 22 22 22 21 21 21 21 21 21 21 21 22 22 22 22 22 22 22 21 21 20 20 20 21 22
22 21 20 20 20 20 21 21 20 20 20 20 21 21 22 23 24 25 27 27 29 31 32 32 33 33 32 32 31 30 28 26 26 25 24 24 24 24 24 23 23 22 22 23 23 22 22 22 22 23 23 23 23 23 24 23 23 22 21 21 22 22 23
21 20 19 20 19 19 19 18 18 18 19 20 20 21 22 24 26 27 28 29 31 33 33 33 33 33 33 32 31 29 28 27 26 25 24 24 25 25 25 25 24 23 23 23 24 25 25 25 24 24 24 24 24 25 25 25 24 24 23 23 23 23 22
24 21 19 19 19 19 18 17 17 18 19 20 21 22 22 25 28 29 30 30 31 33 34 34 34 33 32 31 30 29 28 28 27 26 25 25 26 27 27 27 26 25 24 24 24 25 26 26 25 25 25 25 25 25 25 25 24 24 23 22 22 22 22
27 24 22 20 20 19 18 17 18 19 19 20 20 20 22 25 28 29 30 30 31 32 32 33 33 32 31 29 28 27 27 27 27 26 26 26 27 28 28 27 26 25 24 24 24 25 25 24 24 24 23 23 24 24 24 24 24 23 23 23 23 23 22
Wind_Direction
309 307 306 305 303 301 300 298 297 295 292 290 287 283 280 277 275 273 272 271 268 260 255 259 262 263 263 263 260 255 256 260 262 262 259 254 249 246 244 243 242 248 254 256 255 253 248 243 247 256 263 269 272 273 271 269 264 260 258 258 257 252 248
311 309 307 305 303 302 301 300 299 297 295 292 289 287 284 281 278 275 273 273 272 267 260 258 259 261 263 263 261 257 254 254 255 256 256 254 250 245 242 239 240 245 251 256 260 261 260 256 253 256 261 267 272 275 276 274 272 270 267 264 262 259 253
309 307 304 302 300 298 297 296 296 294 292 290 288 286 284 283 280 278 278 277 275 274 269 265 264 265 265 265 263 261 257 254 253 251 249 249 249 248 246 243 242 245 248 254 258 260 261 262 259 257 257 262 268 273 277 277 276 275 274 272 268 260 250
307 306 304 303 301 299 297 295 294 293 291 289 287 285 283 282 281 279 279 279 279 278 276 273 271 270 270 269 268 267 264 261 258 254 251 249 246 245 246 244 244 246 248 252 255 257 259 260 260 256 251 251 256 263 269 274 278 279 278 278 276 269 262
305 305 304 303 301 300 298 296 294 292 290 288 286 285 284 282 282 282 280 279 278 277 275 274 273 273 273 272 272 272 270 268 265 261 257 254 250 247 245 244 243 244 246 248 250 253 255 257 259 258 253 249 250 254 258 263 268 271 272 274 276 277 278
306 305 304 303 301 300 298 297 296 294 292 290 288 286 284 283 282 282 282 281 279 278 277 276 275 275 274 273 272 271 270 270 269 267 264 261 257 253 251 249 246 246 247 247 249 251 253 254 256 257 257 255 254 256 259 261 261 260 261 266 271 275 278
307 306 305 304 302 301 300 298 297 296 294 292 290 289 287 286 284 283 282 281 280 278 277 277 276 276 274 274 272 271 270 269 268 268 266 264 261 258 255 252 250 249 250 251 252 253 254 256 258 261 263 263 263 262 263 266 266 264 263 264 267 271 274
306 305 304 303 302 300 299 298 297 296 294 292 290 289 288 287 285 284 282 281 280 278 277 276 275 274 274 273 273 273 272 270 269 268 266 264 263 260 258 257 255 254 254 255 256 258 260 263 264 266 267 269 268 267 268 269 271 273 273 269 268 269 270
307 306 304 303 303 301 299 298 297 296 294 293 291 290 289 288 287 285 283 281 279 277 276 275 274 273 273 273 273 273 271 268 267 267 266 265 263 261 260 259 258 257 257 256 257 258 260 263 263 262 262 260 254 256 260 258 257 260 262 259 257 257 260
307 307 306 305 304 303 302 301 299 298 296 294 293 291 290 289 287 287 286 284 282 279 278 277 275 273 272 270 270 269 268 267 266 265 265 264 261 259 258 256 256 256 256 256 255 255 253 253 254 251 248 243 236 235 239 238 238 242 244 246 248 249 249
306 305 305 305 304 303 302 302 301 299 296 294 293 291 290 288 286 285 285 284 283 281 280 279 277 274 270 268 268 268 268 269 268 268 268 267 265 263 260 257 256 255 253 252 252 253 251 247 247 244 238 235 233 233 235 236 238 241 244 247 251 254 255
304 304 303 303 303 302 301 301 300 298 296 294 293 291 289 287 286 286 285 283 283 282 281 280 278 276 274 273 272 271 269 269 268 267 266 265 265 263 262 261 259 257 256 255 255 256 255 251 250 248 244 241 241 241 242 243 244 246 249 252 255 259 261
302 302 302 301 301 300 299 299 298 296 295 293 291 289 287 284 284 284 283 282 281 281 281 279 278 276 275 275 274 273 272 270 268 266 264 262 260 260 260 260 259 258 256 256 256 257 256 255 254 254 252 248 246 247 248 250 251 252 253 255 255 257 259
302 301 300 299 299 298 297 297 296 293 292 290 288 286 283 281 282 283 282 281 280 280 279 279 278 277 275 273 272 271 270 269 267 265 263 262 260 261 261 259 259 258 257 256 255 254 254 253 252 253 254 251 249 251 253 255 257 257 255 257 258 260 261
301 300 299 298 298 297 296 296 294 292 290 288 287 285 282 281 282 283 283 282 281 282 281 282 281 281 280 277 274 273 270 268 266 264 262 261 260 260 260 259 258 257 257 257 255 254 254 253 252 252 253 253 253 253 254 255 257 260 262 265 268 268 269
302 301 300 298 297 296 295 295 293 291 289 287 285 283 282 282 282 283 283 284 284 285 285 285 285 284 284 283 280 277 273 269 268 266 265 264 262 260 259 258 258 256 256 255 255 255 256 257 258 258 257 257 257 257 259 261 263 264 265 267 269 270 272
302 302 301 300 299 297 296 294 292 291 289 288 286 283 281 282 282 283 283 284 286 287 287 287 286 286 286 285 283 281 276 272 270 269 269 268 267 264 262 260 259 258 257 257 256 256 256 257 258 258 257 256 255 254 255 256 257 257 256 256 260 262 266
299 298 299 298 298 298 296 295 292 289 287 286 286 284 283 283 283 283 284 285 286 287 287 288 288 288 288 287 286 284 280 276 273 272 272 274 273 272 270 268 266 261 257 255 255 255 255 256 257 257 257 257 257 256 254 252 255 257 256 256 259 262 265
297 297 297 297 297 298 297 297 295 291 286 284 283 283 283 283 283 283 284 285 285 286 287 289 291 291 291 290 288 285 281 277 274 273 274 275 276 275 276 278 276 269 264 260 258 257 257 258 258 259 259 259 259 260 258 256 258 260 259 260 262 264 266
295 295 296 295 296 296 296 297 295 293 289 283 280 280 281 281 281 282 283 283 283 284 285 286 288 289 288 288 287 284 282 279 276 275 275 275 275 276 279 281 278 274 272 269 266 264 262 261 259 259 259 259 258 258 258 258 259 260 260 261 263 264 264
294 294 294 293 293 294 295 295 294 292 289 284 280 278 278 278 279 280 281 280 279 280 281 283 284 285 284 283 281 281 282 282 281 280 278 277 278 279 281 280 276 274 273 272 272 271 268 266 265 263 261 260 258 256 255 255 256 257 257 258 259 260 261
295 294 294 293 293 293 294 294 293 292 289 285 280 276 275 276 278 278 278 277 276 277 280 281 282 282 281 280 276 273 275 280 282 281 280 280 281 281 281 280 277 275 275 274 275 275 274 274 274 272 270 268 265 262 258 256 255 254 254 254 255 256 258
296 295 295 294 295 295 296 296 296 294 293 290 285 279 274 274 276 277 276 276 277 278 280 281 282 282 282 281 277 274 274 276 278 278 279 281 282 282 281 278 275 274 276 276 277 276 277 278 278 277 277 278 277 276 271 265 260 257 254 253 253 254 256
296 296 296 296 297 297 298 299 299 298 298 296 292 287 281 275 274 274 275 275 277 279 280 281 282 283 283 281 280 278 278 278 278 279 280 281 282 281 278 274 272 273 274 275 275 275 276 277 278 278 280 281 280 275 266 256 251 250 250 252 254 255 257
296 295 295 295 295 296 296 295 295 295 295 294 292 290 287 281 275 273 274 276 278 279 280 281 281 281 281 280 280 278 278 278 279 280 280 280 280 279 276 272 271 271 271 271 272 274 275 276 277 279 280 281 278 270 262 257 254 252 253 254 257 258 258
292 291 290 290 291 292 292 291 291 291 289 287 286 288 289 288 282 276 273 275 277 279 280 280 279 279 280 280 279 278 278 278 279 279 279 279 278 277 275 274 272 270 269 270 272 273 274 276 277 278 276 274 271 268 266 264 263 262 261 260 262 264 264
290 287 286 287 288 290 291 289 289 289 286 282 283 286 288 289 287 283 280 279 280 282 282 281 280 280 280 280 280 279 279 279 279 278 278 278 277 275 273 272 271 270 269 269 270 271 272 274 274 272 270 268 267 268 268 269 269 270 270 268 267 267 268
286 284 283 282 282 284 284 283 283 282 279 277 278 281 285 287 288 289 290 289 289 287 285 284 283 283 284 283 283 283 282 281 279 279 277 276 273 270 267 266 266 265 265 266 268 269 270 271 270 269 269 269 268 268 268 268 267 267 267 267 265 263 264
281 281 280 277 274 273 273 275 277 275 272 270 271 273 277 280 281 284 286 287 286 284 281 281 282 283 284 284 285 285 285 284 285 284 282 279 275 270 267 264 262 262 264 267 269 269 269 269 268 268 268 267 267 268 268 267 264 263 263 262 259 259 261
283 282 280 278 276 274 272 273 275 275 272 272 272 273 275 276 278 281 283 282 280 279 277 277 279 281 282 283 284 284 285 285 286 285 283 281 278 275 273 270 267 266 267 268 268 267 267 267 267 267 267 267 267 268 268 266 265 265 265 262 258 258 259
291 289 285 281 282 282 279 276 277 277 276 276 275 275 276 277 278 279 279 279 279 278 277 278 279 281 282 284 284 284 285 285 285 282 280 278 274 271 269 269 270 272 273 271 268 266 265 264 264 265 264 263 264 266 267 267 266 265 263 260 257 257 258
294 292 289 285 283 283 283 282 282 280 278 276 275 275 276 276 276 276 276 277 277 277 278 279 280 281 283 284 283 284 284 284 282 280 277 274 269 265 262 263 268 273 274 272 270 267 263 260 258 257 258 258 259 262 264 265 264 263 261 259 256 254 254
293 291 288 285 282 281 283 285 285 282 279 277 276 277 277 277 276 276 276 276 276 276 277 279 279 280 282 283 283 284 283 281 278 276 273 270 267 265 264 266 269 270 267 263 263 264 262 259 257 256 257 258 259 260 262 263 264 263 262 259 257 256 256
296 292 289 286 284 283 284 285 283 281 280 280 279 279 279 278 277 276 276 276 277 277 278 279 279 280 282 283 283 283 281 279 277 275 272 268 265 265 268 271 272 269 264 259 259 259 260 261 260 258 258 260 261 262 262 262 262 262 260 259 258 258 258
297 295 291 287 284 283 283 283 282 281 280 280 280 280 280 278 276 277 278 278 278 279 280 280 280 281 282 282 281 280 278 276 276 274 271 267 265 266 269 272 271 268 266 264 261 259 260 261 261 260 259 260 260 260 260 260 260 260 260 259 258 258 257
297 296 292 287 283 282 281 280 281 282 282 282 282 282 280 278 279 282 284 283 282 282 282 282 281 281 281 280 279 277 275 274 273 273 270 268 267 267 269 270 269 269 269 268 266 264 263 262 262 261 260 259 259 259 259 259 259 258 256 254 254 254 254
Height
1424 1423 1422 1421 1420 1419 1418 1417 1416 1417 1417 1417 1416 1416 1416 1415 1415 1415 1415 1415 1415 1416 1416 1416 1416 1416 1416 1417 1417 1417 1417 1416 1416 1415 1415 1415 1416 1417 1418 1419 1419 1418 1417 1418 1420 1420 1421 1422 1423 1422 1423 1423 1424 1425 1425 1425 1426 1426 1426 1426 1426 1426 1426
1422 1421 1420 1419 1418 1417 1417 1415 1415 1415 1415 1415 1414 1414 1414 1414 1414 1414 1413 1413 1413 1413 1414 1414 1414 1414 1415 1415 1415 1415 1416 1415 1414 1414 1414 1414 1415 1415 1416 1417 1418 1418 1417 1417 1418 1418 1419 1419 1420 1420 1421 1421 1421 1421 1422 1422 1423 1423 1423 1423 1423 1423 1423
1421 1420 1418 1418 1417 1416 1415 1414 1414 1414 1413 1413 1413 1412 1412 1412 1412 1412 1412 1412 1411 1411 1412 1412 1412 1413 1413 1413 1413 1413 1414 1414 1413 1413 1413 1413 1413 1414 1415 1416 1416 1416 1416 1415 1416 1416 1416 1417 1417 1417 1418 1418 1418 1418 1419 1419 1419 1419 1419 1419 1419 1420 1421
1419 1418 1417 1416 1415 1414 1413 1413 1412 1412 1412 1411 1411 1410 1410 1410 1410 1410 1410 1410 1410 1410 1410 1410 1410 1410 1410 1410 1410 1411 1412 1412 1412 1412 1412 1412 1412 1412 1413 1413 1414 1414 1414 1413 1413 1413 1414 1414 1414 1415 1415 1416 1416 1416 1416 1416 1415 1415 1415 1415 1415 1416 1417
1417 1416 1415 1414 1413 1412 1412 1411 1411 1410 1410 1410 1409 1408 1408 1408 1408 1408 1408 1408 1408 1407 1408 1408 1408 1408 1408 1408 1408 1408 1409 1409 1409 1410 1410 1410 1410 1410 1410 1410 1411 1411 1411 1410 1410 1410 1411 1411 1411 1412 1412 1413 1413 1413 1413 1413 1413 1413 1412 1412 1412 1412 1412
1416 1414 1413 1412 1411 1410 1409 1409 1408 1408 1408 1407 1407 1406 1406 1406 1406 1406 1406 1406 1405 1405 1405 1405 1405 1406 1406 1405 1405 1406 1406 1407 1407 1407 1407 1408 1408 1408 1408 1408 1408 1408 1408 1407 1407 1407 1407 1408 1408 1409 1409 1410 1411 1410 1410 1410 1410 1410 1410 1409 1409 1408 1409
1414 1413 1411 1410 1409 1408 1407 1407 1406 1406 1405 1405 1404 1404 1403 1403 1403 1403 1403 1403 1403 1403 1403 1403 1403 1403 1403 1403 1403 1403 1404 1404 1404 1404 1405 1405 1405 1405 1405 1405 1405 1405 1405 1404 1404 1404 1404 1404 1405 1405 1405 1406 1407 1406 1406 1406 1406 1406 1406 1407 1406 1406 1406
1412 1411 1409 1408 1407 1406 1406 1405 1405 1404 1403 1403 1402 1401 1401 1401 1401 1401 1401 1401 1401 1401 1401 1401 1401 1400 1400 1400 1400 1401 1401 1401 1402 1402 1402 1402 1402 1402 1402 1401 1401 1401 1401 1401 1400 1400 1400 1400 1401 1401 1401 1402 1402 1402 1402 1403 1402 1402 1402 1403 1403 1403 1403
1409 1408 1407 1406 1405 1404 1404 1403 1403 1402 1401 1401 1400 1399 1398 1398 1398 1398 1399 1399 1399 1399 1399 1398 1398 1397 1397 1396 1397 1398 1398 1398 1398 1398 1398 1399 1399 1398 1398 1398 1397 1397 1397 1397 1397 1397 1397 1397 1397 1397 1398 1398 1399 1399 1399 1399 1399 1399 1399 1400 1399 1399 1400
1407 1406 1405 1404 1403 1402 1401 1401 1401 1400 1399 1399 1398 1397 1396 1396 1396 1396 1396 1397 1397 1397 1396 1396 1395 1394 1394 1394 1394 1394 1395 1395 1395 1395 1395 1395 1395 1395 1394 1394 1394 1393 1393 1393 1393 1393 1393 1393 1393 1394 1395 1395 1395 1396 1395 1396 1396 1396 1396 1396 1396 1396 1397
1404 1403 1402 1401 1401 1400 1399 1399 1398 1398 1397 1396 1395 1395 1393 1393 1393 1394 1394 1394 1394 1394 1393 1393 1392 1391 1391 1391 1391 1391 1391 1391 1391 1391 1391 1390 1390 1391 1390 1390 1390 1390 1390 1390 1390 1389 1389 1389 1389 1390 1391 1391 1392 1392 1392 1392 1393 1393 1393 1393 1393 1393 1393
1402 1401 1400 1399 1398 1398 1397 1397 1396 1395 1394 1394 1393 1392 1391 1390 1390 1391 1391 1391 1391 1390 1390 1389 1388 1388 1388 1387 1388 1388 1388 1388 1387 1387 1387 1387 1387 1387 1387 1387 1387 1387 1387 1387 1386 1385 1385 1386 1386 1386 1387 1388 1388 1388 1388 1389 1389 1390 1390 1390 1389 1389 1389
1400 1399 1398 1396 1396 1395 1395 1394 1394 1393 1392 1391 1391 1390 1389 1388 1387 1388 1388 1388 1387 1387 1386 1386 1385 1384 1384 1384 1384 1384 1384 1384 1384 1383 1383 1383 1383 1383 1384 1384 1384 1383 1383 1383 1382 1382 1382 1382 1383 1383 1383 1384 1384 1384 1385 1385 1386 1387 1387 1386 1386 1385 1385
1397 1396 1395 1394 1393 1392 1392 1392 1391 1390 1389 1389 1388 1388 1387 1385 1385 1385 1385 1385 1384 1384 1383 1382 1382 1381 1381 1381 1381 1381 1381 1380 1380 1380 1380 1380 1380 1380 1380 1380 1380 1380 1379 1379 1378 1378 1378 1379 1379 1379 1379 1380 1381 1381 1381 1382 1382 1383 1383 1382 1382 1381 1381
1393 1392 1392 1391 1390 1389 1389 1389 1388 1387 1387 1386 1385 1385 1383 1382 1382 1381 1381 1381 1380 1380 1380 1379 1378 1377 1377 1377 1377 1378 1377 1377 1376 1376 1376 1376 1376 1376 1376 1376 1376 1376 1376 1375 1375 1374 1374 1374 1375 1375 1376 1376 1377 1377 1378 1379 1379 1379 1379 1378 1377 1377 1376
1389 1388 1387 1387 1386 1385 1385 1386 1385 1384 1383 1383 1382 1381 1380 1379 1378 1378 1377 1376 1376 1376 1376 1375 1374 1374 1373 1373 1374 1374 1373 1373 1372 1372 1371 1371 1372 1372 1371 1371 1372 1372 1372 1371 1370 1370 1370 1370 1371 1372 1372 1373 1374 1374 1375 1375 1375 1375 1375 1375 1373 1372 1372
1385 1384 1383 1382 1382 1381 1381 1382 1382 1381 1380 1379 1379 1377 1376 1375 1374 1373 1373 1372 1371 1371 1371 1371 1371 1370 1369 1369 1369 1370 1369 1369 1368 1367 1367 1366 1367 1367 1366 1367 1368 1368 1367 1367 1366 1366 1366 1366 1367 1367 1368 1369 1370 1370 1371 1371 1370 1371 1372 1371 1369 1368 1369
1381 1380 1379 1378 1377 1377 1376 1377 1378 1377 1376 1375 1375 1373 1371 1370 1370 1369 1368 1368 1367 1367 1366 1367 1367 1366 1366 1365 1365 1365 1365 1365 1364 1363 1362 1361 1361 1361 1361 1362 1364 1364 1363 1362 1362 1362 1362 1362 1362 1363 1363 1364 1365 1366 1367 1367 1366 1367 1368 1366 1365 1364 1365
1376 1375 1375 1374 1373 1373 1372 1372 1372 1373 1372 1371 1371 1369 1368 1366 1365 1365 1364 1364 1363 1363 1362 1362 1363 1362 1362 1361 1361 1361 1361 1361 1360 1359 1358 1357 1357 1356 1356 1358 1359 1358 1358 1358 1358 1358 1358 1358 1358 1359 1359 1360 1361 1362 1362 1362 1361 1362 1363 1361 1360 1361 1362
1372 1371 1370 1370 1369 1368 1368 1367 1367 1368 1368 1367 1366 1365 1364 1362 1361 1360 1360 1360 1360 1359 1359 1359 1359 1359 1359 1358 1357 1357 1357 1357 1356 1355 1354 1354 1353 1352 1352 1354 1353 1353 1353 1353 1353 1353 1354 1354 1355 1355 1356 1356 1357 1357 1357 1357 1357 1357 1358 1357 1357 1357 1358
1368 1366 1365 1365 1365 1364 1364 1363 1363 1363 1363 1363 1362 1361 1360 1358 1357 1357 1357 1356 1356 1356 1355 1356 1356 1356 1355 1355 1354 1353 1352 1352 1352 1351 1350 1350 1349 1349 1349 1349 1349 1348 1349 1348 1348 1349 1349 1350 1350 1351 1352 1352 1352 1353 1353 1353 1353 1353 1353 1353 1353 1353 1353
1363 1362 1360 1360 1360 1359 1359 1359 1358 1358 1358 1358 1357 1356 1355 1354 1353 1353 1353 1352 1352 1352 1352 1352 1352 1352 1351 1351 1350 1350 1349 1348 1348 1347 1346 1346 1346 1346 1346 1345 1344 1344 1344 1344 1344 1344 1344 1345 1345 1346 1346 1347 1347 1348 1348 1348 1348 1349 1349 1349 1349 1349 1349
1359 1357 1356 1355 1355 1355 1354 1354 1354 1353 1353 1353 1353 1352 1351 1350 1350 1350 1349 1348 1347 1348 1348 1348 1348 1347 1347 1347 1346 1346 1345 1344 1344 1343 1342 1342 1342 1342 1342 1341 1341 1340 1340 1340 1340 1340 1340 1340 1341 1341 1341 1342 1342 1343 1343 1344 1344 1344 1345 1345 1345 1345 1345
1355 1353 1351 1350 1350 1350 1350 1350 1349 1349 1349 1348 1348 1348 1347 1347 1346 1346 1345 1344 1343 1344 1344 1344 1343 1343 1342 1342 1341 1341 1340 1340 1339 1339 1339 1338 1338 1338 1338 1337 1337 1336 1336 1336 1336 1335 1335 1335 1336 1337 1337 1338 1338 1339 1339 1340 1340 1341 1341 1341 1341 1341 1341
1351 1350 1349 1347 1346 1346 1346 1347 1346 1346 1345 1344 1344 1344 1343 1343 1342 1342 1341 1340 1340 1340 1340 1339 1339 1339 1338 1338 1337 1337 1336 1335 1335 1335 1335 1334 1334 1334 1333 1333 1333 1333 1333 1332 1331 1331 1331 1332 1333 1333 1334 1334 1335 1336 1336 1336 1337 1337 1337 1337 1337 1337 1337
1348 1347 1346 1345 1344 1343 1343 1343 1343 1343 1342 1341 1341 1340 1340 1339 1339 1338 1338 1337 1336 1336 1336 1335 1335 1335 1334 1334 1333 1332 1332 1331 1331 1331 1330 1330 1330 1330 1329 1329 1329 1329 1328 1328 1328 1328 1328 1328 1329 1330 1331 1331 1332 1332 1332 1332 1332 1333 1333 1333 1333 1333 1333
1346 1345 1344 1342 1341 1341 1340 1340 1340 1340 1340 1339 1338 1337 1337 1336 1335 1335 1334 1334 1333 1333 1332 1332 1331 1331 1330 1330 1329 1328 1328 1327 1327 1327 1326 1326 1326 1326 1325 1325 1325 1325 1325 1324 1325 1325 1325 1325 1326 1327 1327 1328 1328 1328 1328 1329 1329 1329 1329 1330 1330 1329 1329
1342 1342 1341 1340 1339 1339 1338 1337 1337 1337 1337 1336 1335 1334 1333 1333 1332 1332 1331 1331 1330 1329 1328 1328 1327 1327 1326 1326 1325 1325 1324 1324 1323 1323 1322 1322 1322 1322 1322 1322 1322 1321 1321 1321 1321 1322 1322 1322 1323 1323 1323 1324 1324 1324 1325 1325 1325 1325 1325 1326 1327 1326 1326
1339 1338 1338 1337 1336 1336 1335 1334 1334 1334 1334 1333 1332 1331 1331 1330 1330 1329 1329 1328 1327 1326 1325 1324 1323 1323 1322 1322 1321 1320 1320 1319 1319 1319 1318 1318 1318 1318 1318 1318 1318 1318 1318 1318 1318 1318 1319 1319 1319 1320 1320 1320 1320 1320 1321 1322 1322 1322 1323 1323 1324 1323 1323
1336 1335 1334 1333 1332 1332 1331 1330 1330 1331 1330 1330 1329 1329 1328 1328 1327 1326 1325 1325 1324 1323 1321 1320 1319 1319 1318 1318 1317 1316 1316 1316 1315 1315 1315 1315 1315 1315 1314 1315 1315 1315 1315 1315 1315 1315 1315 1316 1316 1316 1316 1317 1317 1317 1318 1318 1319 1319 1320 1320 1320 1320 1320
1333 1332 1331 1330 1328 1327 1328 1327 1327 1327 1326 1326 1326 1325 1324 1324 1323 1322 1321 1321 1320 1318 1317 1316 1316 1315 1314 1314 1313 1312 1312 1312 1312 1312 1311 1311 1311 1312 1311 1311 1311 1312 1312 1312 1312 1312 1312 1312 1313 1313 1313 1314 1314 1314 1315 1315 1316 1316 1316 1317 1317 1317 1317
1329 1328 1328 1327 1325 1324 1323 1324 1323 1323 1323 1322 1322 1321 1320 1320 1319 1318 1318 1317 1316 1314 1313 1312 1312 1310 1310 1310 1309 1309 1309 1308 1308 1308 1308 1308 1308 1308 1308 1309 1309 1309 1309 1309 1309 1309 1309 1309 1310 1310 1311 1311 1311 1311 1312 1312 1312 1313 1313 1314 1314 1314 1314
1326 1325 1324 1324 1323 1322 1321 1320 1320 1320 1319 1318 1318 1317 1317 1316 1315 1314 1314 1313 1312 1310 1308 1308 1307 1306 1306 1306 1305 1305 1305 1305 1304 1304 1304 1304 1304 1305 1305 1306 1306 1306 1306 1306 1306 1306 1306 1306 1307 1307 1308 1308 1308 1308 1309 1309 1309 1310 1310 1310 1310 1311 1311
1323 1322 1321 1320 1320 1319 1318 1318 1317 1316 1316 1315 1314 1314 1313 1312 1311 1310 1309 1309 1307 1306 1304 1304 1303 1303 1302 1302 1301 1301 1301 1300 1300 1300 1301 1301 1301 1301 1301 1302 1302 1303 1302 1302 1303 1303 1303 1303 1304 1304 1304 1305 1305 1305 1305 1305 1305 1306 1307 1307 1307 1307 1307
1319 1319 1318 1317 1316 1316 1315 1315 1314 1313 1312 1311 1311 1310 1309 1308 1306 1305 1305 1304 1303 1302 1301 1300 1299 1299 1298 1298 1297 1297 1297 1296 1296 1297 1297 1297 1297 1298 1298 1298 1298 1298 1299 1299 1299 1299 1299 1300 1300 1301 1301 1301 1301 1301 1301 1301 1302 1303 1303 1303 1304 1304 1304
1314 1314 1314 1314 1313 1313 1312 1311 1311 1310 1309 1308 1307 1307 1305 1304 1302 1301 1300 1300 1299 1298 1297 1296 1295 1294 1294 1294 1294 1293 1293 1293 1293 1293 1293 1294 1294 1294 1294 1294 1294 1295 1295 1295 1295 1295 1296 1296 1296 1297 1297 1297 1297 1297 1298 1298 1298 1299 1300 1300 1301 1301 1301